This demonstration page uses our WeatherBlox Daily Observations layout. Learn more.

Left ArrowRight Arrow

47.50024, -111.30081

Hourly Observations for May 8, 2017

Temp ( °F °C ) Dew Point ( °F °C ) Humidity (%) Winds ( mph kmh ) Pressure ( in mb ) Visibility ( mi km ) Precip ( " mm )
12:53 am 00:53 Clear 37 2.8 35 1.7 93 93 SW 7 11 30.14 1021 10 16 0.00 0.00
1:53 am 01:53 Clear 35 1.7 33 0.6 93 93 SW 8 13 30.15 1021 10 16 0.00 0.00
2:53 am 02:53 Clear 34 1.1 33 0.6 97 97 SW 8 13 30.16 1021 10 16 0.00 0.00
3:53 am 03:53 Clear 35 1.7 32 0 89 89 SW 10 17 30.16 1022 10 16 0.00 0.00
4:53 am 04:53 Clear 34 1.1 32 0 92 92 SW 9 15 30.18 1022 10 16 0.00 0.00
5:53 am 05:53 Clear 33 0.6 31 -0.6 92 92 SSW 10 17 30.19 1022 10 16 0.00 0.00
6:53 am 06:53 Sunny 35 1.7 32 0 89 89 SSW 9 15 30.21 1023 10 16 0.00 0.00
7:53 am 07:53 Sunny 42 5.6 36 2.2 79 79 SSW 9 15 30.20 1023 10 16 0.00 0.00
8:53 am 08:53 Sunny 46 7.8 37 2.8 71 71 SSW 13 20 30.20 1023 10 16 0.00 0.00
9:53 am 09:53 Sunny 50 10 35 1.7 57 57 W 10 17 30.20 1023 10 16 0.00 0.00
10:53 am 10:53 Sunny 53 11.7 29 -1.7 40 40 WNW 6 9 30.20 1023 10 16 0.00 0.00
11:53 am 11:53 Sunny 54 12.2 27 -2.8 35 35 undefined N/A 30.18 1022 10 16 0.00 0.00
12:53 pm 12:53 Sunny 55 12.8 27 -2.8 34 34 VRB 7 11 30.16 1021 10 16 0.00 0.00
1:53 pm 13:53 Sunny 57 13.9 31 -0.6 37 37 S 8 13 30.14 1021 10 16 0.00 0.00
2:53 pm 14:53 Sunny 59 15 27 -2.8 29 29 NNE 5 7 30.12 1020 10 16 0.00 0.00
3:53 pm 15:53 Sunny 60 15.6 26 -3.3 27 27 E 3 6 30.08 1019 10 16 0.00 0.00
4:53 pm 16:53 Sunny 60 15.6 25 -3.9 26 26 Calm 30.06 1018 10 16 0.00 0.00
5:53 pm 17:53 Sunny 62 16.7 26 -3.3 25 25 ENE 5 7 30.05 1018 10 16 0.00 0.00
6:53 pm 18:53 Sunny 60 15.6 24 -4.4 25 25 ENE 7 11 30.03 1017 10 16 0.00 0.00
7:53 pm 19:53 Sunny 55 12.8 28 -2.2 35 35 E 7 11 30.03 1017 10 16 0.00 0.00
8:53 pm 20:53 Clear 50 10 29 -1.7 44 44 E 8 13 30.04 1017 10 16 0.00 0.00
9:53 pm 21:53 Clear 49 9.4 32 0 52 52 E 10 17 30.03 1017 10 16 0.00 0.00
10:53 pm 22:53 Clear 48 8.9 34 1.1 58 58 ESE 10 17 30.02 1017 10 16 0.00 0.00
11:53 pm 23:53 Clear 48 8.9 34 1.1 58 58 ESE 9 15 30.01 1016 10 16 0.00 0.00

Powered by AerisWeather